When you browse on this site, cookies collect data to enhance your experience and personalize the content and advertising you see.
Visit our Privacy Policy to learn more. By continuing to use the site, you agree to this use of cookies and data.
  • In Schweiz
  • Länderverzeichnis
  • Für 7 Tage
  • Wassertemperatur
  • Satellitenkarten
  • Wetterkarte
  • Widgets
  • user-avatar
    Anmelden

    Stündliche Wetter Lausanne

    Heute, 20 März, Mittwoch

    Zeit Temperatur Niederschläge Wind Luftdruck Luftfeuchtigkeit
    00:00 0°C° 0 mm 3 m/S 730 mmHg 86%
    01:00 0°C° 0 mm 3 m/S 730 mmHg 85%
    02:00 -1°C° 0 mm 3 m/S 730 mmHg 85%
    03:00 -1°C° 0 mm 3 m/S 730 mmHg 84%
    04:00 -1°C° 0 mm 3 m/S 731 mmHg 83%
    05:00 -1°C° 0 mm 3 m/S 731 mmHg 82%
    06:00 -1°C° 0 mm 3 m/S 731 mmHg 81%
    07:00 +1°C° 0 mm 3 m/S 731 mmHg 74%
    08:00 +3°C° 0 mm 4 m/S 731 mmHg 66%
    09:00 +5°C° 0 mm 4 m/S 731 mmHg 59%
    10:00 +6°C° 0 mm 4 m/S 731 mmHg 56%
    11:00 +7°C° 0 mm 5 m/S 731 mmHg 53%
    12:00 +8°C° 0 mm 5 m/S 731 mmHg 50%
    13:00 +9°C° 0 mm 5 m/S 731 mmHg 51%
    14:00 +10°C° 0 mm 4 m/S 730 mmHg 52%
    15:00 +10°C° 0 mm 4 m/S 730 mmHg 53%
    16:00 +7°C° 0 mm 4 m/S 730 mmHg 59%
    17:00 +5°C° 0 mm 4 m/S 731 mmHg 65%
    18:00 +4°C° 0 mm 4 m/S 731 mmHg 71%
    19:00 +3°C° 0 mm 4 m/S 731 mmHg 73%
    20:00 +2°C° 0 mm 3 m/S 731 mmHg 76%
    21:00 +2°C° 0 mm 3 m/S 732 mmHg 79%
    22:00 +1°C° 0 mm 3 m/S 732 mmHg 80%
    23:00 +1°C° 0 mm 3 m/S 732 mmHg 82%

    Morgen, 21 März, Donnerstag

    Zeit Temperatur Niederschläge Wind Luftdruck Luftfeuchtigkeit
    00:00 +2°C° 0 mm 2 m/S 732 mmHg 84%
    01:00 +2°C° 0 mm 2 m/S 732 mmHg 84%
    02:00 +1°C° 0 mm 2 m/S 731 mmHg 85%
    03:00 +1°C° 0 mm 2 m/S 731 mmHg 85%
    04:00 +1°C° 0 mm 2 m/S 732 mmHg 84%
    05:00 +1°C° 0 mm 2 m/S 732 mmHg 83%
    06:00 +1°C° 0 mm 2 m/S 732 mmHg 83%
    07:00 +4°C° 0 mm 2 m/S 732 mmHg 74%
    08:00 +6°C° 0 mm 2 m/S 731 mmHg 66%
    09:00 +8°C° 0 mm 2 m/S 731 mmHg 58%
    10:00 +10°C° 0 mm 2 m/S 731 mmHg 55%
    11:00 +12°C° 0 mm 2 m/S 731 mmHg 53%
    12:00 +14°C° 0 mm 2 m/S 730 mmHg 50%
    13:00 +14°C° 0 mm 2 m/S 730 mmHg 52%
    14:00 +14°C° 0 mm 2 m/S 730 mmHg 54%
    15:00 +14°C° 0 mm 2 m/S 729 mmHg 56%
    16:00 +12°C° 0 mm 2 m/S 729 mmHg 64%
    17:00 +8°C° 0 mm 2 m/S 730 mmHg 72%
    18:00 +6°C° 0 mm 2 m/S 730 mmHg 80%
    19:00 +6°C° 0 mm 2 m/S 730 mmHg 81%
    20:00 +5°C° 0 mm 2 m/S 730 mmHg 82%
    21:00 +5°C° 0 mm 1 m/S 731 mmHg 83%
    22:00 +5°C° 0 mm 1 m/S 731 mmHg 82%
    23:00 +5°C° 0 mm 1 m/S 731 mmHg 80%

    übermorgen, 22 März, Freitag

    Zeit Temperatur Niederschläge Wind Luftdruck Luftfeuchtigkeit
    00:00 +5°C° 0 mm 1 m/S 731 mmHg 78%
    01:00 +5°C° 0 mm 1 m/S 731 mmHg 76%
    02:00 +5°C° 0 mm 1 m/S 731 mmHg 74%
    03:00 +5°C° 0 mm 1 m/S 730 mmHg 72%
    04:00 +5°C° 0 mm 1 m/S 730 mmHg 70%
    05:00 +5°C° 0 mm 1 m/S 730 mmHg 68%
    06:00 +5°C° 0 mm 1 m/S 730 mmHg 66%
    07:00 +8°C° 0 mm 1 m/S 730 mmHg 59%
    08:00 +10°C° 0 mm 0 m/S 730 mmHg 52%
    09:00 +13°C° 0 mm 0 m/S 730 mmHg 46%
    10:00 +14°C° 0 mm 0 m/S 730 mmHg 44%
    11:00 +16°C° 0 mm 1 m/S 729 mmHg 42%
    12:00 +18°C° 0 mm 1 m/S 729 mmHg 40%
    13:00 +18°C° 0 mm 1 m/S 729 mmHg 41%
    14:00 +18°C° 0 mm 1 m/S 728 mmHg 43%
    15:00 +18°C° 0 mm 1 m/S 728 mmHg 44%
    16:00 +15°C° 0 mm 1 m/S 728 mmHg 52%
    17:00 +11°C° 0 mm 0 m/S 728 mmHg 61%
    18:00 +9°C° 0 mm 0 m/S 728 mmHg 69%
    19:00 +8°C° 0 mm 0 m/S 728 mmHg 71%
    20:00 +8°C° 0 mm 0 m/S 729 mmHg 73%
    21:00 +8°C° 0 mm 1 m/S 729 mmHg 75%
    22:00 +8°C° 0 mm 1 m/S 729 mmHg 75%
    23:00 +8°C° 0 mm 1 m/S 729 mmHg 75%

    23 März, Samstag

    Zeit Temperatur Niederschläge Wind Luftdruck Luftfeuchtigkeit
    00:00 +7°C° 0 mm 1 m/S 729 mmHg 74%
    01:00 +7°C° 0 mm 1 m/S 729 mmHg 74%
    02:00 +7°C° 0 mm 1 m/S 729 mmHg 73%
    03:00 +6°C° 0 mm 1 m/S 729 mmHg 72%
    04:00 +6°C° 0 mm 1 m/S 729 mmHg 72%
    05:00 +6°C° 0 mm 1 m/S 729 mmHg 71%
    06:00 +6°C° 0 mm 1 m/S 729 mmHg 70%
    07:00 +9°C° 0 mm 1 m/S 729 mmHg 64%
    08:00 +11°C° 0 mm 0 m/S 729 mmHg 57%
    09:00 +13°C° 0 mm 0 m/S 729 mmHg 50%
    10:00 +16°C° 0 mm 1 m/S 728 mmHg 47%
    11:00 +18°C° 0 mm 1 m/S 728 mmHg 43%
    12:00 +19°C° 0 mm 1 m/S 728 mmHg 39%
    13:00 +18°C° 0 mm 1 m/S 727 mmHg 40%
    14:00 +18°C° 0 mm 1 m/S 727 mmHg 41%
    15:00 +18°C° 0 mm 1 m/S 727 mmHg 41%
    16:00 +15°C° 0 mm 1 m/S 727 mmHg 49%
    17:00 +13°C° 0 mm 1 m/S 727 mmHg 57%
    18:00 +11°C° 0 mm 1 m/S 727 mmHg 65%
    19:00 +10°C° 0 mm 1 m/S 727 mmHg 68%
    20:00 +9°C° 0 mm 1 m/S 727 mmHg 71%
    21:00 +9°C° 0 mm 1 m/S 727 mmHg 75%
    22:00 +8°C° 0 mm 1 m/S 727 mmHg 76%
    23:00 +8°C° 0 mm 1 m/S 727 mmHg 76%

    24 März, Sonntag

    Zeit Temperatur Niederschläge Wind Luftdruck Luftfeuchtigkeit
    00:00 +7°C° 0 mm 0 m/S 727 mmHg 77%
    01:00 +6°C° 0 mm 0 m/S 727 mmHg 77%
    02:00 +6°C° 0 mm 0 m/S 727 mmHg 77%
    03:00 +6°C° 0 mm 0 m/S 727 mmHg 76%
    04:00 +7°C° 0 mm 1 m/S 727 mmHg 75%
    05:00 +7°C° 0 mm 1 m/S 727 mmHg 74%
    06:00 +7°C° 0 mm 1 m/S 727 mmHg 73%
    07:00 +9°C° 0 mm 1 m/S 727 mmHg 67%
    08:00 +11°C° 0 mm 0 m/S 727 mmHg 60%
    09:00 +14°C° 0 mm 0 m/S 728 mmHg 54%
    10:00 +16°C° 0 mm 1 m/S 727 mmHg 50%
    11:00 +18°C° 0 mm 1 m/S 727 mmHg 47%
    12:00 +18°C° 0 mm 1 m/S 727 mmHg 43%
    13:00 +18°C° 0 mm 1 m/S 727 mmHg 45%
    14:00 +17°C° 0 mm 2 m/S 726 mmHg 47%
    15:00 +17°C° 0 mm 2 m/S 726 mmHg 49%
    16:00 +15°C° 0 mm 2 m/S 726 mmHg 60%
    17:00 +13°C° 0 mm 2 m/S 726 mmHg 70%
    18:00 +11°C° 0 mm 1 m/S 727 mmHg 81%
    19:00 +10°C° 0 mm 1 m/S 727 mmHg 84%
    20:00 +9°C° 0 mm 1 m/S 727 mmHg 87%
    21:00 +9°C° 0 mm 1 m/S 728 mmHg 90%
    22:00 +8°C° 0 mm 1 m/S 728 mmHg 91%
    23:00 +8°C° 0 mm 1 m/S 728 mmHg 91%

    25 März, Montag

    Zeit Temperatur Niederschläge Wind Luftdruck Luftfeuchtigkeit
    00:00 +7°C° 0 mm 2 m/S 728 mmHg 92%
    01:00 +7°C° 0 mm 2 m/S 728 mmHg 93%
    02:00 +7°C° 0 mm 2 m/S 728 mmHg 93%
    03:00 +6°C° 0 mm 2 m/S 728 mmHg 94%
    04:00 +7°C° 0 mm 2 m/S 728 mmHg 93%
    05:00 +7°C° 0 mm 2 m/S 728 mmHg 92%
    06:00 +7°C° 0 mm 3 m/S 728 mmHg 91%
    07:00 +7°C° 0 mm 3 m/S 728 mmHg 87%
    08:00 +7°C° 0 mm 4 m/S 728 mmHg 83%
    09:00 +8°C° 0 mm 5 m/S 728 mmHg 79%
    10:00 +8°C° 0 mm 5 m/S 728 mmHg 76%
    11:00 +9°C° 0 mm 5 m/S 728 mmHg 73%
    12:00 +9°C° 0 mm 5 m/S 728 mmHg 70%
    13:00 +9°C° 0 mm 5 m/S 727 mmHg 68%
    14:00 +10°C° 0 mm 5 m/S 727 mmHg 66%
    15:00 +10°C° 0 mm 5 m/S 727 mmHg 64%
    16:00 +9°C° 0 mm 5 m/S 727 mmHg 68%
    17:00 +7°C° 0 mm 5 m/S 728 mmHg 72%
    18:00 +6°C° 0 mm 5 m/S 728 mmHg 76%
    19:00 +6°C° 0 mm 5 m/S 728 mmHg 79%
    20:00 +5°C° 0 mm 5 m/S 729 mmHg 82%
    21:00 +4°C° 0 mm 6 m/S 729 mmHg 85%
    22:00 +3°C° 0 mm 6 m/S 729 mmHg 85%
    23:00 +3°C° 0 mm 6 m/S 730 mmHg 85%
    Mehr zeigen